Terminal Aerodrome Forecast
Issued by NWS New Orleans/Baton Rouge, LA

Home | Current Version | Previous Version | Text Only | Print | Product List | Glossary On
Versions: 1 2 3 4 5 6 7 8 9 10 11 12 13 14 15 16 17 18 19 20
000
FTUS44 KLIX 260500 RRA
TAFNEW
TAF
KNEW 260540Z 2606/2706 29018KT P6SM SKC
     FM260900 32018KT P6SM SKC
     FM261600 32011KT P6SM SKC=

USA.gov is the U.S. government's official web portal to all federal, state and local government web resources and services.